Back to catalog

STARLINK-36805

AliveCommunicationsSSO
NORAD 68116·PAYLOAD·🇺🇸 United States

Launched Mar 8, 2026 from Vandenberg Space Force Base

Loading…

Next Passes (next 24 hours)

TLE

FreshSource: CelesTrak SupGP

Epoch: Sep 14, 2026, 23:25 UTC

1 68116C 26044R   26257.97618056 -.00053861  00000+0 -16721-2 0  2572
2 68116  97.2850 217.0215 0001624  87.7876 223.7548 15.33463338    10

Track STARLINK-36805 in real time with AllMySat

Download on the App Store